Wind_Speed
9 8 9 10 12 16 18 19 19 18 17 15 14 15 15 15 14 14 13 11 11 11 11 10 9 10 2 6 1 5 8 4 5 6 12 12 14 13 8 7 9 7 6 9 8 6 2
9 7 7 10 12 16 18 18 16 15 13 13 13 13 13 13 13 13 12 12 12 13 11 8 8 6 3 10 2 1 5 10 5 11 10 6 4 6 4 7 6 7 9 9 8 7 4
9 6 7 9 12 15 16 14 13 11 10 10 10 11 11 12 11 12 13 13 13 11 8 6 7 0 7 6 2 3 3 6 6 11 7 5 9 6 4 5 2 6 8 7 7 7 5
9 6 7 9 11 14 14 12 10 8 7 7 6 8 9 11 12 15 14 12 10 7 6 7 6 2 6 1 7 5 5 6 4 4 4 1 6 8 8 7 4 9 9 9 11 8 6
8 6 7 8 10 13 11 9 7 6 6 4 3 4 7 10 11 11 10 9 6 5 5 5 3 5 5 3 6 3 3 10 3 2 1 1 6 5 2 9 9 9 9 8 9 6 2
8 6 6 6 10 11 10 7 5 5 4 2 2 4 6 7 8 9 8 7 5 4 3 3 13 8 4 2 2 2 2 5 4 3 5 6 6 8 11 7 5 11 10 6 4 9 6
7 6 5 5 8 10 9 5 4 4 3 1 3 4 5 7 8 9 9 3 5 4 9 7 10 3 6 6 5 2 3 6 6 6 10 6 8 7 12 9 7 9 7 8 13 7 3
7 6 3 4 6 8 9 4 3 3 2 3 3 3 5 7 7 7 8 6 6 7 6 4 7 6 2 4 6 6 3 6 4 11 0 5 7 8 6 8 6 6 6 6 5 6 5
7 5 3 3 5 7 8 4 4 4 4 3 3 3 6 8 7 6 11 5 6 9 5 4 5 5 3 2 6 3 8 5 8 7 5 13 10 5 5 6 9 4 7 9 8 9 8
7 5 3 2 4 7 8 5 5 4 4 4 4 5 8 9 4 7 4 1 5 7 4 7 5 4 3 0 4 3 5 5 3 4 8 8 4 4 2 6 9 3 6 5 8 7 7
7 6 3 2 4 7 8 6 5 6 6 6 5 3 5 6 11 7 3 3 5 3 4 3 5 1 4 2 5 6 1 6 2 3 4 5 5 5 4 6 6 6 5 6 8 9 10
8 6 4 1 3 7 9 7 6 7 8 8 5 3 6 1 2 4 2 3 3 4 3 5 5 7 6 3 3 4 3 5 3 4 11 7 3 7 6 4 2 7 10 9 8 9 3
8 6 4 1 2 6 8 7 6 9 10 9 7 5 2 4 2 1 2 3 4 3 6 7 9 7 9 6 7 5 5 5 3 4 5 8 7 5 7 10 5 9 9 3 2 3 2
9 7 4 2 2 5 8 6 6 10 11 11 8 5 3 3 1 2 3 6 5 4 5 8 9 11 8 6 5 1 10 9 9 12 6 7 6 5 7 7 7 5 6 2 4 5 4
10 7 4 2 1 5 7 5 6 10 13 13 11 5 5 1 1 2 5 5 2 4 8 8 10 7 5 4 2 6 12 7 8 11 7 4 7 6 7 5 8 7 6 4 1 3 1
11 8 5 3 1 3 6 3 7 11 15 17 9 8 7 4 1 3 4 7 1 6 5 11 9 3 7 7 7 5 3 4 4 9 6 4 4 4 3 3 4 6 2 2 3 2 3
12 9 6 3 1 3 6 3 8 12 17 19 4 6 5 7 3 5 6 4 2 2 8 6 2 4 5 4 3 3 5 6 6 6 6 6 3 4 5 8 8 1 2 2 4 1 2
13 10 6 3 1 3 6 5 8 14 18 11 7 5 7 10 6 7 8 3 1 7 2 3 5 3 3 4 2 4 8 8 4 5 4 4 2 2 8 5 3 3 5 3 0 2 0
14 10 7 4 1 3 5 7 6 15 18 7 6 4 4 6 5 5 4 6 4 8 7 4 2 1 2 5 3 6 8 5 5 7 4 4 1 2 8 5 4 2 4 1 6 2 4
15 11 8 4 1 2 5 7 4 12 17 4 4 3 4 5 7 11 8 7 5 3 4 1 5 4 5 5 4 6 9 4 5 7 4 3 2 2 2 5 6 7 8 8 8 4 5
15 11 8 5 1 2 4 6 5 5 11 5 4 5 7 6 7 6 11 10 11 6 5 6 5 5 6 2 6 5 11 8 4 2 1 3 1 5 7 8 7 9 11 11 12 11 8
16 12 9 5 2 2 4 5 6 2 8 4 3 2 3 3 10 8 5 7 11 8 9 8 5 7 7 6 3 6 6 4 3 3 2 4 2 3 2 3 9 12 14 14 15 14 9
16 12 9 6 3 1 3 5 6 4 4 6 2 2 2 2 4 6 6 9 10 10 2 6 7 8 11 12 12 11 10 9 6 4 4 2 1 2 2 9 9 2 3 3 5 7 9
16 12 9 6 3 1 3 5 7 6 1 3 3 2 3 1 5 9 10 8 10 9 6 8 7 9 9 13 12 11 12 9 7 6 4 5 2 2 2 5 2 4 13 11 9 7 7
16 12 9 6 4 1 3 5 7 7 5 5 2 3 3 2 6 7 9 8 11 6 10 13 10 11 10 4 3 2 2 4 3 5 4 4 3 2 0 3 9 10 5 5 5 10 11
16 13 9 7 4 2 3 5 7 7 6 5 5 4 3 5 2 7 9 12 8 8 7 5 5 5 1 2 2 3 3 2 6 6 7 4 5 1 2 2 3 1 7 6 8 8 7
16 13 10 7 5 3 2 4 6 6 6 6 3 3 2 2 3 4 6 8 8 7 5 7 6 2 1 2 2 2 3 2 5 5 4 3 2 4 4 4 6 9 4 3 3 2 7
15 13 10 7 5 3 2 3 5 5 5 6 2 6 3 3 3 5 1 8 5 7 5 8 4 1 2 3 3 3 2 4 1 4 6 7 6 4 4 4 6 2 1 2 6 8 3
13 11 9 6 5 3 2 2 4 5 5 3 1 6 8 2 4 5 5 6 5 8 5 8 3 7 5 3 2 1 2 2 2 3 7 4 6 4 9 5 8 1 5 7 3 5 4
Wind_Direction
258 282 293 302 307 308 305 305 301 295 289 282 274 267 264 262 254 252 250 241 227 225 228 245 266 276 284 240 91 92 350 334 230 200 233 215 224 224 214 160 192 99 100 93 118 155 68
265 280 292 306 310 311 308 307 303 295 287 278 268 261 256 251 243 238 229 223 216 218 229 248 263 272 274 270 73 295 348 316 239 238 237 258 314 312 143 165 183 139 135 138 160 134 147
267 276 292 306 313 313 314 314 301 297 291 278 266 255 244 240 225 219 215 210 209 220 241 257 249 67 264 292 306 320 270 341 342 332 320 10 320 247 52 62 27 146 159 166 174 148 159
266 272 293 306 316 316 321 312 306 307 296 278 261 239 224 221 206 204 200 199 208 224 244 242 221 179 274 247 328 225 310 250 285 302 37 137 262 296 342 101 215 198 233 195 155 159 170
260 270 291 311 317 324 326 310 312 309 302 287 257 211 193 188 188 183 187 199 208 227 221 184 197 216 240 189 216 10 267 304 140 219 45 219 233 191 212 203 192 213 229 175 149 185 61
254 265 290 315 320 332 325 313 305 296 293 278 213 178 166 163 170 177 184 185 204 190 213 238 264 248 216 98 24 254 226 262 249 178 216 234 222 197 210 224 358 333 221 150 191 140 204
244 260 284 320 327 338 321 316 287 291 281 220 171 154 148 166 178 183 174 180 195 186 215 302 154 129 130 100 178 152 138 205 251 218 239 216 265 57 27 30 356 335 8 336 93 93 335
238 253 275 315 339 341 325 311 281 253 225 182 148 152 166 167 174 187 230 251 40 58 130 101 88 82 36 20 122 119 260 236 210 240 213 239 76 45 7 22 341 324 344 312 55 65 286
232 245 261 307 345 338 325 304 281 246 202 174 134 126 169 174 172 209 233 18 10 0 124 66 16 74 14 7 36 61 311 251 225 238 210 50 70 49 13 47 342 130 356 19 338 324 275
230 232 246 302 343 337 330 294 255 223 201 180 159 126 145 151 178 205 204 334 357 359 177 149 184 105 158 92 98 19 323 320 269 94 73 63 62 20 351 80 351 343 35 318 285 278 274
223 223 236 299 338 334 332 294 241 212 201 191 185 168 180 184 306 197 43 354 335 304 165 184 89 62 146 307 127 89 40 249 169 106 277 103 81 5 50 16 334 38 336 299 288 272 276
215 215 224 271 335 335 332 297 229 204 203 195 180 178 159 213 345 41 36 344 319 249 132 141 152 140 120 103 66 108 108 37 330 111 59 83 78 45 6 304 315 298 261 239 259 251 265
208 209 215 225 336 340 330 306 220 200 198 192 176 143 129 7 2 70 43 226 237 294 148 144 147 204 124 109 99 139 124 82 322 170 160 135 65 106 353 291 201 343 336 264 246 179 244
204 202 207 205 338 345 336 323 207 195 192 185 173 142 77 85 24 311 279 230 251 61 173 127 145 144 135 135 119 141 142 97 40 323 189 194 139 8 20 24 349 348 320 41 333 357 349
197 196 201 204 343 347 339 328 190 188 184 174 163 168 190 269 75 311 252 225 136 261 122 158 158 165 150 153 169 96 68 71 28 22 31 333 94 112 53 360 351 357 48 354 183 36 309
193 192 199 202 313 352 346 340 180 180 177 166 175 186 177 201 235 256 242 254 79 347 148 171 184 256 167 154 169 175 112 22 83 24 348 41 125 29 48 247 80 50 6 332 26 338 316
188 192 201 199 287 353 1 4 171 176 174 175 227 205 144 176 190 223 226 216 117 134 329 214 221 197 117 146 165 118 75 100 26 60 50 354 332 110 233 27 15 29 49 21 310 67 285
188 191 196 193 273 8 19 24 163 169 168 182 198 219 162 158 192 220 232 133 107 169 233 62 13 137 137 133 95 79 104 55 47 332 58 36 83 292 70 77 25 9 28 16 13 352 180
188 188 189 191 237 25 28 41 145 169 177 220 208 128 172 180 208 227 123 124 183 169 180 169 110 20 68 128 106 110 110 66 27 33 33 352 82 266 144 156 155 321 56 69 101 90 249
188 186 185 188 159 26 29 37 100 180 202 255 232 123 148 201 272 192 183 169 141 5 112 120 115 157 134 141 94 135 120 102 59 71 327 308 89 48 341 331 337 303 288 270 255 186 259
186 186 184 176 158 24 26 24 40 182 207 217 261 173 168 187 243 233 183 180 164 167 193 177 172 180 150 131 133 138 119 135 138 143 185 360 87 13 330 318 309 301 293 286 273 264 250
181 180 181 172 148 26 12 19 21 77 190 235 308 148 179 150 203 221 135 207 189 178 169 181 193 188 154 142 199 164 147 171 125 176 81 36 105 12 259 2 349 306 293 289 280 270 284
180 177 177 171 155 44 5 17 21 31 188 250 61 319 216 323 196 207 163 228 202 117 294 193 169 123 74 71 66 61 55 51 75 134 118 56 33 39 274 348 312 318 257 313 345 329 315
179 177 176 169 155 72 14 10 23 30 36 355 15 255 96 184 208 195 208 212 157 166 173 114 124 104 106 106 72 58 54 49 88 67 75 128 56 74 301 312 8 41 318 291 314 280 291
174 174 172 165 152 96 28 15 21 34 64 61 36 322 109 154 213 201 203 180 116 124 126 87 54 112 149 154 120 101 53 41 50 51 90 126 139 89 303 304 297 299 53 29 1 307 307
171 170 166 159 148 107 35 24 20 31 64 74 41 51 73 121 244 205 182 137 148 131 100 103 77 97 166 78 98 150 174 184 154 135 42 64 97 246 122 234 252 6 55 41 318 276 51
171 167 164 157 145 122 60 29 21 22 52 68 33 46 301 85 79 293 157 166 145 165 140 145 156 131 313 93 105 185 184 285 175 177 186 99 164 200 193 246 278 273 1 341 246 26 355
171 168 164 156 140 121 82 37 20 19 29 61 48 21 27 62 74 17 24 185 157 184 141 144 125 142 79 92 154 194 148 222 174 190 164 168 164 198 196 228 256 348 31 253 350 334 8
167 170 169 165 151 127 99 49 19 17 28 51 106 54 67 31 78 39 42 23 17 10 142 161 184 149 163 123 163 143 182 2 26 218 206 211 189 188 187 211 220 180 218 270 275 262 47
Height
796 793 792 790 789 788 786 783 782 780 778 777 777 778 779 779 779 779 778 778 779 780 781 781 781 779 779 778 764 763 762 760 760 760 758 752 752 751 757 755 757 764 764 763 766 769 768
794 791 789 788 787 785 783 780 778 776 775 775 775 776 776 776 776 776 777 777 778 779 780 781 779 778 780 780 763 763 762 759 756 756 752 748 747 746 751 753 758 758 762 767 767 769 771
792 789 787 786 785 783 779 777 776 774 774 773 774 773 774 774 774 775 776 776 778 779 780 780 779 779 778 769 764 763 763 762 760 757 751 753 751 750 750 762 755 759 773 768 768 768 773
790 787 786 784 782 781 777 776 774 773 772 772 772 772 772 772 773 774 775 777 779 779 779 779 778 780 774 766 765 765 763 761 762 760 758 757 756 751 756 755 762 770 766 780 767 766 768
788 785 784 782 781 779 776 775 773 772 772 772 772 771 772 772 774 775 777 779 779 779 779 778 779 779 768 765 764 764 765 761 760 761 760 759 756 757 761 771 777 771 782 775 777 763 767
786 784 783 780 780 777 775 774 773 773 773 773 773 773 773 774 775 776 778 779 779 779 778 779 777 781 764 762 764 765 764 764 760 759 760 760 758 765 764 769 796 788 775 770 774 771 772
783 783 781 779 779 776 775 775 774 773 774 774 774 773 773 775 776 777 778 779 781 781 774 765 763 764 762 764 764 762 765 764 761 761 770 759 769 783 778 773 773 772 772 773 770 772 780
781 781 780 779 777 776 775 774 775 775 774 775 775 775 776 777 778 778 778 772 767 765 774 764 764 764 765 762 765 763 764 765 766 772 761 768 782 777 770 771 776 776 780 779 772 775 783
779 779 778 778 777 776 775 773 773 773 774 775 775 775 776 777 778 778 774 771 769 767 769 770 766 766 767 762 769 769 766 760 766 768 767 783 783 775 777 779 785 778 788 795 796 783 777
778 778 777 777 776 777 774 773 773 773 774 775 776 776 777 777 780 774 772 772 771 771 777 782 771 770 767 764 776 769 767 767 765 771 770 783 780 783 782 786 791 795 791 795 795 797 799
776 777 776 775 775 775 774 772 772 772 774 776 777 777 777 778 777 773 775 773 773 773 804 777 771 768 766 771 770 773 769 766 774 777 780 792 788 788 790 797 793 797 792 794 793 795 792
775 775 776 775 775 774 773 772 771 771 773 775 777 777 778 779 777 777 775 774 775 791 807 783 770 772 775 771 772 770 771 767 769 775 776 787 781 790 794 790 791 788 789 787 787 791 812
773 774 775 775 774 773 773 771 769 771 773 775 777 777 778 778 777 778 777 777 792 796 771 784 780 772 776 783 777 775 780 783 785 796 796 788 793 790 790 792 786 786 791 813 823 814 820
772 773 774 773 773 772 771 769 768 770 772 775 777 778 779 781 780 779 779 783 800 774 774 764 774 776 785 782 785 781 782 794 787 787 786 797 818 798 794 801 806 798 801 826 839 837 822
770 772 773 773 772 771 770 769 767 769 772 775 777 779 780 780 781 781 780 795 783 774 767 776 776 786 790 786 786 788 794 801 801 795 800 801 811 799 802 800 800 806 817 808 825 838 841
769 770 772 772 772 772 771 768 767 769 772 774 777 779 778 780 781 782 786 790 774 766 764 770 785 778 789 789 791 787 794 800 803 800 792 804 815 806 802 800 800 804 805 823 824 849 848
767 770 772 772 772 771 770 767 767 769 771 774 776 776 777 779 781 781 788 779 774 769 769 774 775 784 778 789 784 791 798 805 800 802 797 804 807 816 806 812 814 810 813 817 820 832 847
766 769 771 771 771 771 770 768 767 769 772 775 772 778 777 779 785 778 778 771 777 779 774 776 773 777 783 788 793 797 802 805 804 802 811 813 815 828 816 812 808 811 816 818 842 842 839
766 768 770 771 771 771 770 768 767 769 771 771 768 771 778 778 786 782 775 776 772 779 778 781 786 782 782 791 807 799 809 812 810 811 820 816 819 831 825 822 813 816 815 820 832 845 851
764 767 769 771 771 771 770 769 768 769 770 772 761 777 775 777 768 773 778 783 786 776 782 779 784 784 789 797 793 805 815 815 814 818 826 822 816 826 838 826 818 824 818 816 822 845 843
764 766 768 770 771 771 770 769 768 768 769 772 759 766 767 780 776 768 769 772 782 790 781 781 787 786 792 804 801 806 809 818 818 826 820 818 829 826 825 822 820 822 821 819 821 820 836
763 766 768 769 770 771 771 770 768 768 768 770 764 764 765 764 766 770 777 774 776 777 783 786 787 786 788 804 803 808 805 809 814 818 818 821 837 840 838 820 824 829 822 819 816 813 815
762 765 768 769 770 771 771 770 769 767 768 763 765 764 763 778 768 773 776 774 773 778 785 776 780 789 804 803 803 805 808 809 812 818 824 829 837 845 846 842 842 845 828 814 813 811 817
761 764 767 768 770 771 771 770 769 768 767 767 767 765 773 783 772 773 772 769 773 782 788 780 783 799 806 805 811 814 817 819 818 823 821 840 844 855 857 855 849 819 811 810 816 812 813
761 764 766 768 769 771 771 770 769 768 768 769 769 768 775 796 775 770 773 774 776 783 786 796 796 798 803 806 822 835 840 848 838 828 829 827 844 864 860 850 837 823 818 824 829 830 817
761 764 766 768 769 771 771 771 771 770 770 771 771 771 772 788 781 769 773 777 787 791 800 808 806 805 806 820 833 848 833 821 834 838 836 837 841 848 866 862 854 824 817 819 822 835 825
761 764 766 768 769 771 772 772 772 773 772 772 774 773 773 778 773 773 776 783 783 793 800 806 811 814 808 834 842 833 825 816 829 841 855 858 855 858 858 860 845 821 818 822 838 839 831
761 763 766 768 770 771 773 774 774 774 774 773 776 775 775 779 780 779 778 778 781 786 803 802 811 813 821 840 839 831 839 827 824 815 839 849 852 860 853 856 849 818 821 837 829 828 830
761 763 766 769 771 773 774 775 776 776 775 776 777 777 776 778 784 785 785 786 787 788 788 798 800 805 811 822 829 830 837 842 835 828 804 824 822 828 833 831 815 812 820 822 827 830 834